Weather in Nassau

Bahamas     25°02′48″N   77°19′24″W
temp.,
°C
wind,
m/s
gust,
m/s
humid.,
%
clouds,
%
prec.,
mm/h
press.,
hPa
HPBL,
m
27 october, wed
wed2723:00+28wsw77772 0.1 1012832
02:00+28wsw78780 0.2 1010721
05:00+28w78800 0.2 1010785
08:00+28w777991 0.3 1011814
11:00+28w66751 0.1 1013840
14:00+28wnw66740 0.1 1011814
17:00+28nw56745 0.0 1010648
20:00+28nw5575100 0.0 1012724
28 october, thu
thu2823:00+27nw2274100 0.0 1013497
02:00+27wnw1274100 0.0 1012418
05:00+27ssw1275100 0.0 1011415
08:00+28s3374100 0.0 1012668
11:00+28sw557275 0.1 1013716
14:00+28ssw5773100 0.2 1011647
17:00+29sw6775100 0.3 1010756
20:00+29sw7879100 1.4 1011762
29 october, fri
fri2923:00+28sw787780 1.1 1011655
02:00+28ssw81080100 1.1 1010946
05:00+28sw91177100 2.1 1009880
08:00+28sw9117580 2.3 1010999
11:00+28sw91278100 0.2 10111100
14:00+28sw91277100 1.4 10091196
17:00+28wsw91176100 2.8 10081115
20:00+28wsw9107755 4.9 1010943
30 october, sat
sat3023:00+27w897636 1.4 1010967
02:00+27w797198 1.7 10091044
05:00+27w7971100 0.0 10091031
08:00+27wsw6871100 0.0 10101057
11:00+27wsw8966100 0.1 10111170
14:00+28wsw8106299 0.1 10091465
17:00+28wsw796419 0.0 10091637
20:00+28w886370 0.0 10111632
31 october, sun
sun3123:00+27w68671 0.0 10121103
02:00+26w566743 0.1 1012917
05:00+26w5766100 0.1 1012844
08:00+26w5667100 0.1 1014601
11:00+27w55640 0.1 1015761
14:00+27wnw54620 0.1 10151060
17:00+26nnw446499 0.0 1015818
20:00+26n3463100 0.1 1016743